Погода в Соловьевске

Погода в Соловьевске : погода сейчас, прогноз погоды и архив. Всё, что Вы хотите узнать о погоде в Соловьевске!

Поиск расширенной информации на нашем сайте:

Другие новости

Новости СМИ2

Главная страница сайта

Новости сайта

02.10.2013

Напоминаем, что на нашем новом сайте вы можете получить высокодетализированные прогнозы погоды по пунктам России, СНГ и мира (включающие важные для авиации метеовеличины, такие как направление и скорость ветра, видимость, явления погоды, количество и форма облачности, нижняя и верхняя граница облачности), а также ознакомиться с разнообразными материалами по авиационной метеорологии и подборкой полезных ссылок на эту тему.

Сайт Метеоцентр.Азия посвящён разработке технологий оптимизации авиаметеорологического обслуживания, включая проектирование и перспективное создание нескольких автоматизированных авиаметеорологических систем:
- система выпуска высокодетальных прогностических карт явлений погоды для нижнего воздушного пространства по России и ближнему зарубежью;
- система верификации прогнозов TAF (выпускаемых синоптиками официальных АМСГ РФ и ближнего зарубежья) и AUTOTAF (выпускаемых сайтом Метеоцентр.Азия) - выявление ошибок, онлайн-сопоставление с фактической погодой METAR, автоматическое внесение коррективов в прогнозы при резком отклонении фактической погоды от прогноза, подсчёт оправдываемости прогнозов по элементам и в целом;
- система обработки, анализа и отображения авиаметеорологической информации для применения провайдерами метеорологической информации.

Рекомендуем: Установка автосигнализации STAR LINE B-9.Сигнализация.

Погода в Соловьевске - сегодня

Время (UTC), дата Ветер
(°,м/с) 
Видим.   Явления Облачность Т
(°С)
Тd
(°С)
f(%) Тe
(°С)
Pmin
(гПа)
dP
(гПа)
Po
(мм)
O2
(г/м3)
Тmin Tmax R s Состояние
почвы
21 16.02.17 310 (СЗ) 20000 м    3/0 верхняя 
[Ci sp]
-25 -28.6 72 -28  1034.3  0.7  713  318           
03 17.02.17 280 (З) 20000 м    ясно 
-21.7 -27.5 59 -22  1034.8  0.8  714  314           
09 17.02.17 100 (В) 20000 м    ясно 
-19.6 -28 47 -20  1032.6  -0.5  713  311           
15 17.02.17 160 (Ю) 20000 м    ясно 
-29.5 -32.3 77 -35  1035.7  -0.6  713  324           
18 17.02.17 160 (Ю) 20000 м    ясно 
-33.1 -36.4 72 -39  1036.2  -0.7  712  328           
21 17.02.17 130 (ЮВ) 20000 м    ясно 
-32.6 -35.9 72 -40  1034.1  -1.8  711  327           
03 18.02.17 140 (ЮВ) 20000 м    8/0 средняя, верхняя 
[Ac trans|Ci sp]
-24.1 -29.3 62 -30  1027  -2  708  315           
18 18.02.17 020 (С) 4000 м  слаб. снег  10/0 средняя 
[As op]
-19.2 -21.4 83 -22  1017.1  0.7  702  306           
21 18.02.17 340 (С) 10 км  слаб. снег  10/0 средняя 
[Ac As]
-19.8 -21.9 83 -23  1019  1.6  703  307           
09 19.02.17 330 (СЗ) 2{11}  20000 м    ясно 
-14.8 -19.8 66 -17  1025.4  2.1  709  303           
15 19.02.17 270 (З) 20000 м    4/0 верхняя 
[Ci sp]
-22.7 -26.8 69 -26  1031.2  0.7  711  314           
18 19.02.17 200 (Ю) 20000 м    4/0 верхняя 
[Ci sp]
-24.7 -28.2 73 -30  1033.1  712  317           
21 19.02.17 210 (ЮЗ) 20000 м    3/0 верхняя 
[Ci sp]
-26.4 -29.5 75 -30  1034.9  1.1  713  320           
03 20.02.17 190 (Ю) 20000 м    ясно 
-17.5 -22.8 63 -21  1032.9  0.1  714  309           
09 20.02.17 150 (ЮВ) 20000 м    9/0 средняя, верхняя 
[Ac trans|Ci sp]
-16.7 -20.1 75 -23  1030.6  -0.8  712  307           
15 20.02.17 150 (ЮВ) 20000 м    3/0 верхняя 
[Ci sp]
-22.6 -24.9 81 -28  1030.4  -1.4  711  314           
18 20.02.17 150 (ЮВ) 20000 м    3/0 верхняя 
[Ci sp]
-24 -26.5 80 -29  1029.7  -1  710  315           
21 20.02.17 190 (Ю) 20000 м    3/0 верхняя 
[Ci sp]
-26.8 -29.5 78 -30  1030.1  -0.6  709  319           
03 21.02.17 230 (ЮЗ) 20000 м    8/0 средняя, верхняя 
[Ac trans|Ci sp]
-19.3 -22.3 77 -20  1028  0.2  710  309           
09 21.02.17 170 (Ю) 20000 м    8/0 средняя, верхняя 
[Ac trans|Ci sp]
-16.5 -19.8 76 -20  1023.9  -1.3  708  305           
15 21.02.17 260 (З) 20000 м    ясно 
-23.5 -25.7 82 -27  1027.7  0.2  709  314           
18 21.02.17 260 (З) 20000 м    5/0 верхняя 
[Ci sp]
-22.9 -25.5 79 -23  1027.6  709  313           
21 21.02.17 290 (З) 20000 м    5/0 верхняя 
[Ci sp]
-22.9 -25.6 79 -26  1027.8  0.2  709  313           
03 22.02.17 310 (СЗ) 20000 м    10/0 средняя, верхняя 
[Ac trans|Cs]
-15.3 -20 67 -19  1027.4  0.9  710  305           
09 22.02.17 330 (СЗ) 20000 м    6/0 средняя, верхняя 
[Ac trans|Ci sp]
-11 -17.4 59 -13  1025.5  0.1  710  299           
Время (UTC), дата Ветер
(°,м/с) 
Видим.   Явления Облачность Т
(°С)
Тd
(°С)
f(%) Тe
(°С)
Pmin
(гПа)
dP
(гПа)
Po
(мм)
O2
(г/м3)
Тmin Tmax R s Состояние
почвы

Для получения пояснительной информации подведите курсор к названию столбца.

ПОГОДА в Соловьевске - архив

Всё, что Вы хотите узнать о погоде в Соловьевске - удобно и подробно!

Выберите нужную дату (начиная с 1 января 2015* года) и нажмите кнопку "Найти".
Будут отображены архивные сводки погоды по пункту Соловьевск, начиная с указанной даты.


Отображать данные в формате CSV (для использования в таблицах Excel)


Внимание! Наш архив погоды предназначен исключительно для личного некоммерческого использования в познавательных целях. Если Вам необходимы официальные справки о состоянии погоды (для производственных, юридических, коммерческих и т.п. целей), обращайтесь в органы Росгидромета.

*Примечание: данная дата относится к архиву по метеостанциям СССР (Россия, СНГ, Балтия).
Архив по метеостанциям Зарубежной Европы и Азии (кроме Китая) хранится 10 дней, по другим регионам земного шара (Китай, Африка, Америка, Австралия, Океания) - 1 день.

Соловьевск - район местоположения метеостанции


Название, широта, долгота, высота метеостанции:
Соловьевск 49.9°ш. 115.8°д. 623 м над ур. моря [Российская Федерация]

Дополнительная информация

В oтличие oт бoльшинства пoгoдных сайтoв мы публикуем пoдрoбную метеoинфoрмацию в детальнoм прoфессиoнальнoм фoрмате.

Характеристики температуры и влажнoсти вoздуха измеряются на высoте 2 м в тени вдали oт зданий и деревьев.
Скoрoсть ветра измеряется на высoте 10 м (на урoвне рoста челoвека скoрoсть ветра ниже в 1.5-2 раза). Если метеoстанция нахoдится в гoрoде или в лесу, тo скoрoсть ветра занижена на 2-4 м/с пo сравнению с oткрытым местoм. Скoрoсть ветра над акватoриями крупных рек и oзёр, а также на вершинах хoлмoв на 2-5 м/с выше, чем в oбычных услoвиях.
Атмoсфернoе давление в разных тoчках местнoсти мoжет значительнo oтличаться oт давления на метеoстанции, в зависимoсти oт услoвий рельефа (при пoдъёме на 10 м давление пoнижается примернo на 1 мм рт.ст.).